Litchfield, MN

5:05 AM CDT on May 26, 2017 (GMT -0500)
Litchfield Municipal

Weather History for KLJF - December, 2013

Change the Weather History Date:

Friday, December 13, 2013

  Actual Average Record
Temperature  
Mean Temperature 11 °F -  
Max Temperature 14 °F 27 °F 48 °F (2014)
Min Temperature 8 °F 10 °F -21 °F (1985)
Degree Days  
Heating Degree Days 54    
Moisture  
Dew Point 7 °F    
Average Humidity 85    
Maximum Humidity 100    
Minimum Humidity 79    
Precipitation  
Precipitation 0.00 in - - ()
Sea Level Pressure  
Sea Level Pressure 30.17 in    
Wind  
Wind Speed 8 mph (NE)    
Max Wind Speed 14 mph    
Max Gust Speed 18 mph    
Visibility 9 miles    
Events Snow    
Averages and records for this station are not official NWS values.
T = Trace of Precipitation, MM = Missing Value Source: NWS Daily Summary

Daily Weather History Graph

Daily Weather History Graph

Search for Another Location

Airport or City:

Trip Planner

Search our weather history database for the weather conditions in past years. The results will help you decide how hot, cold, wet, or windy it might be!

Date:

Astronomy

Dec. 13, 2013 Rise Set
Actual Time 7:48 AM CST 4:36 PM CST
Civil Twilight 7:14 AM CST 5:10 PM CST
Nautical Twilight 6:37 AM CST 5:47 PM CST
Astronomical Twilight 6:01 AM CST 6:23 PM CST
Moon 2:25 PM CST (12/13) 4:04 AM CST (12/13)
Length of Visible Light 9h 55m
Length of Day
8h 47m
Waxing Gibbous, 88% of the Moon is Illuminated
Dec 13
Waxing Gibbous
Dec 17
Full
Dec 25
Last Quarter
Jan 1
New
Jan 7
First Quarter

Hourly Weather History & Observations

Time (CST) Temp. Windchill Dew Point Humidity Pressure Visibility Wind Dir Wind Speed Gust Speed Precip Events Conditions
12:12 AM 12.2 °F - 10.4 °F 92% 30.12 in 10.0 mi Calm Calm - N/A   Clear
12:33 AM 10.4 °F - 10.4 °F 100% 30.12 in 10.0 mi Calm Calm - N/A   Clear
12:53 AM 10.4 °F 4.0 °F 10.4 °F 100% 30.12 in 10.0 mi NNE 3.5 mph - N/A   Clear
1:12 AM 10.4 °F 2.2 °F 10.4 °F 100% 30.10 in 10.0 mi NE 4.6 mph - N/A   Clear
1:33 AM 10.4 °F 2.2 °F 8.6 °F 92% 30.11 in 10.0 mi NE 4.6 mph - N/A   Clear
1:53 AM 12.2 °F 2.9 °F 8.6 °F 85% 30.10 in 10.0 mi NE 5.8 mph - N/A   Clear
2:12 AM 10.4 °F 0.8 °F 8.6 °F 92% 30.11 in 10.0 mi NE 5.8 mph - N/A   Clear
2:33 AM 12.2 °F 1.7 °F 8.6 °F 85% 30.11 in 10.0 mi NE 6.9 mph - N/A   Clear
2:53 AM 12.2 °F -1.0 °F 10.4 °F 92% 30.10 in 10.0 mi NE 10.4 mph - N/A   Mostly Cloudy
3:12 AM 14.0 °F 1.2 °F 10.4 °F 86% 30.09 in 10.0 mi NE 10.4 mph - N/A   Mostly Cloudy
3:33 AM 14.0 °F 2.0 °F 10.4 °F 86% 30.10 in 10.0 mi NE 9.2 mph - N/A   Overcast
3:53 AM 12.2 °F -0.2 °F 10.4 °F 92% 30.10 in 10.0 mi NE 9.2 mph - N/A   Scattered Clouds
4:12 AM 12.2 °F -1.0 °F 8.6 °F 85% 30.10 in 10.0 mi ENE 10.4 mph - N/A   Clear
4:33 AM 12.2 °F -0.2 °F 8.6 °F 85% 30.10 in 10.0 mi NE 9.2 mph - N/A   Clear
4:53 AM 12.2 °F -1.8 °F 8.6 °F 85% 30.10 in 10.0 mi ENE 11.5 mph - N/A   Clear
5:12 AM 12.2 °F 0.7 °F 8.6 °F 85% 30.11 in 10.0 mi ENE 8.1 mph - N/A   Clear
5:33 AM 12.2 °F 0.7 °F 10.4 °F 92% 30.12 in 10.0 mi NE 8.1 mph - N/A   Scattered Clouds
5:52 AM 12.2 °F 1.7 °F 10.4 °F 92% 30.12 in 10.0 mi NE 6.9 mph - N/A   Overcast
6:13 AM 12.2 °F -1.8 °F 8.6 °F 85% 30.12 in 10.0 mi NE 11.5 mph 16.1 mph N/A   Overcast
6:33 AM 12.2 °F -1.8 °F 8.6 °F 85% 30.13 in 10.0 mi ENE 11.5 mph 16.1 mph N/A   Overcast
6:52 AM 12.2 °F -1.0 °F 8.6 °F 85% 30.13 in 10.0 mi ENE 10.4 mph - N/A   Overcast
7:13 AM 12.2 °F -2.5 °F 8.6 °F 85% 30.13 in 10.0 mi ENE 12.7 mph - N/A   Overcast
7:33 AM 12.2 °F -1.0 °F 8.6 °F 85% 30.14 in 10.0 mi ENE 10.4 mph - N/A   Overcast
7:52 AM 12.2 °F -0.2 °F 8.6 °F 85% 30.15 in 10.0 mi ENE 9.2 mph - N/A   Overcast
8:13 AM 12.2 °F -1.8 °F 8.6 °F 85% 30.15 in 10.0 mi ENE 11.5 mph 16.1 mph N/A   Overcast
8:33 AM 12.2 °F -1.8 °F 8.6 °F 85% 30.15 in 10.0 mi ENE 11.5 mph 18.4 mph N/A   Overcast
8:53 AM 12.2 °F -1.8 °F 8.6 °F 85% 30.16 in 10.0 mi ENE 11.5 mph - N/A   Overcast
9:13 AM 12.2 °F -0.2 °F 8.6 °F 85% 30.17 in 10.0 mi ENE 9.2 mph - N/A   Overcast
9:33 AM 12.2 °F -1.0 °F 8.6 °F 85% 30.17 in 10.0 mi ENE 10.4 mph - N/A   Overcast
9:53 AM 12.2 °F -2.5 °F 8.6 °F 85% 30.17 in 10.0 mi ENE 12.7 mph - N/A   Overcast
10:12 AM 12.2 °F -1.0 °F 8.6 °F 85% 30.17 in 10.0 mi ENE 10.4 mph - N/A   Overcast
10:33 AM 12.2 °F -2.5 °F 6.8 °F 79% 30.17 in 10.0 mi East 12.7 mph - N/A   Overcast
10:53 AM 12.2 °F -1.8 °F 8.6 °F 85% 30.17 in 10.0 mi ENE 11.5 mph - N/A   Overcast
11:13 AM 12.2 °F -2.5 °F 6.8 °F 79% 30.17 in 10.0 mi ENE 12.7 mph 16.1 mph N/A   Overcast
11:33 AM 12.2 °F -1.0 °F 6.8 °F 79% 30.17 in 10.0 mi ENE 10.4 mph - N/A   Overcast
11:53 AM 12.2 °F -0.2 °F 8.6 °F 85% 30.17 in 10.0 mi NE 9.2 mph - N/A   Overcast
12:13 PM 12.2 °F -2.5 °F 8.6 °F 85% 30.17 in 10.0 mi NE 12.7 mph - N/A   Overcast
12:33 PM 12.2 °F -2.5 °F 8.6 °F 85% 30.16 in 10.0 mi NNE 12.7 mph - N/A   Overcast
12:53 PM 12.2 °F -1.8 °F 6.8 °F 79% 30.16 in 10.0 mi NE 11.5 mph - N/A   Overcast
1:13 PM 12.2 °F -2.5 °F 6.8 °F 79% 30.16 in 10.0 mi NE 12.7 mph - N/A   Overcast
1:33 PM 10.4 °F -4.8 °F 6.8 °F 85% 30.16 in 10.0 mi NE 12.7 mph - N/A   Overcast
1:53 PM 10.4 °F -4.8 °F 6.8 °F 85% 30.16 in 10.0 mi ENE 12.7 mph - N/A   Overcast
2:13 PM 10.4 °F -2.4 °F 6.8 °F 85% 30.16 in 10.0 mi NE 9.2 mph 18.4 mph N/A   Overcast
2:33 PM 10.4 °F -2.4 °F 6.8 °F 85% 30.17 in 10.0 mi NE 9.2 mph - N/A   Overcast
2:53 PM 10.4 °F -4.1 °F 5.0 °F 79% 30.18 in 10.0 mi NNE 11.5 mph 17.3 mph N/A   Overcast
3:13 PM 10.4 °F -4.8 °F 5.0 °F 79% 30.18 in 10.0 mi NE 12.7 mph 18.4 mph N/A   Overcast
3:33 PM 10.4 °F -3.3 °F 5.0 °F 79% 30.18 in 10.0 mi NE 10.4 mph - N/A   Overcast
3:53 PM 10.4 °F -4.1 °F 5.0 °F 79% 30.19 in 10.0 mi NE 11.5 mph 17.3 mph N/A   Overcast
4:13 PM 8.6 °F -7.0 °F 5.0 °F 85% 30.19 in 10.0 mi NE 12.7 mph - N/A   Overcast
4:33 PM 8.6 °F -6.3 °F 5.0 °F 85% 30.19 in 10.0 mi NE 11.5 mph - N/A   Overcast
4:52 PM 8.6 °F -5.5 °F 5.0 °F 85% 30.20 in 10.0 mi NE 10.4 mph - N/A   Overcast
5:13 PM 8.6 °F -4.7 °F 5.0 °F 85% 30.20 in 10.0 mi NE 9.2 mph - N/A   Overcast
5:33 PM 8.6 °F -7.0 °F 5.0 °F 85% 30.21 in 10.0 mi NE 12.7 mph 18.4 mph N/A   Overcast
5:53 PM 8.6 °F -7.0 °F 5.0 °F 85% 30.22 in 10.0 mi NE 12.7 mph - N/A   Overcast
6:13 PM 8.6 °F -4.7 °F 5.0 °F 85% 30.22 in 10.0 mi NE 9.2 mph - N/A   Overcast
6:33 PM 8.6 °F -7.7 °F 3.2 °F 79% 30.22 in 10.0 mi NE 13.8 mph 17.3 mph N/A   Overcast
6:53 PM 8.6 °F -5.5 °F 3.2 °F 79% 30.22 in 10.0 mi ENE 10.4 mph 16.1 mph N/A   Overcast
7:13 PM 8.6 °F -5.5 °F 3.2 °F 79% 30.22 in 10.0 mi NE 10.4 mph - N/A   Overcast
7:33 PM 8.6 °F -7.7 °F 5.0 °F 85% 30.22 in 10.0 mi NE 13.8 mph - N/A   Overcast
7:53 PM 8.6 °F -5.5 °F 5.0 °F 85% 30.24 in 5.0 mi NE 10.4 mph - N/A Snow Light Snow
8:13 PM 8.6 °F -6.3 °F 5.0 °F 85% 30.25 in 4.0 mi NE 11.5 mph - N/A Snow Light Snow
8:33 PM 8.6 °F -6.3 °F 3.2 °F 79% 30.25 in 5.0 mi NE 11.5 mph 17.3 mph N/A Snow Light Snow
8:52 PM 8.6 °F -5.5 °F 5.0 °F 85% 30.25 in 4.0 mi NNE 10.4 mph - N/A Snow Light Snow
9:13 PM 8.6 °F -5.5 °F 5.0 °F 85% 30.25 in 4.0 mi NE 10.4 mph - N/A Snow Light Snow
9:33 PM 8.6 °F -4.7 °F 5.0 °F 85% 30.25 in 4.0 mi NE 9.2 mph - N/A Snow Light Snow
9:52 PM 8.6 °F -3.7 °F 5.0 °F 85% 30.25 in 4.0 mi NE 8.1 mph - N/A Snow Light Snow
10:13 PM 8.6 °F -3.7 °F 5.0 °F 85% 30.26 in 4.0 mi NE 8.1 mph - N/A Snow Light Snow
10:33 PM 8.6 °F -4.7 °F 6.8 °F 92% 30.26 in 4.0 mi NNE 9.2 mph - N/A Snow Light Snow
10:52 PM 8.6 °F -5.5 °F 5.0 °F 85% 30.27 in 4.0 mi NE 10.4 mph - N/A Snow Light Snow
11:13 PM 8.6 °F -4.7 °F 5.0 °F 85% 30.27 in 4.0 mi NE 9.2 mph - N/A Snow Light Snow
11:33 PM 8.6 °F -5.5 °F 5.0 °F 85% 30.27 in 4.0 mi NE 10.4 mph - N/A   Overcast
11:52 PM 8.6 °F -4.7 °F 5.0 °F 85% 30.26 in 4.0 mi NE 9.2 mph - N/A Snow Light Snow